{"data":{"norad_id":53904,"epoch":"2026-09-19T22:16:56.284608Z","epoch_age_seconds":136134,"freshness":"FRESH","line1":"1 53904U 22119U   26262.92842922  .00000376  00000+0  22275-4 0  9999","line2":"2 53904  53.1593 158.4715 0001074  98.7670 261.3454 15.34394206221196","mean_motion":15.34394206,"eccentricity":0.0001074,"inclination_deg":53.1593,"raan_deg":158.4715,"arg_perigee_deg":98.767,"mean_anomaly_deg":261.3454,"bstar":2.2275e-5,"rev_number":22119,"period_min":93.848112458266,"perigee_km":461.98575315899,"apogee_km":463.45516934166,"semimajor_km":6840.8574612503,"source":"CELESTRAK","updated_at":"2026-09-21T09:00:33.031546Z"}}